Glasgow, MT

1:28 PM MDT on April 25, 2017 (GMT -0600)
Wokal-Glasgow International

Weather History for KGGW - May, 2014

Change the Weather History Date:

Saturday, May 10, 2014

  Actual Average Record
Temperature  
Mean Temperature 47 °F 53 °F  
Max Temperature 56 °F 66 °F 95 °F (1900)
Min Temperature 38 °F 40 °F 16 °F (1946)
Degree Days  
Heating Degree Days 18 12  
Month to date heating degree days 186 135  
Since 1 July heating degree days 8655 8142  
Cooling Degree Days 0 0  
Month to date cooling degree days 0 0  
Year to date cooling degree days 0 1  
Moisture  
Dew Point 37 °F    
Average Humidity 72    
Maximum Humidity 92    
Minimum Humidity 51    
Precipitation  
Precipitation 0.59 in 0.05 in 2.08 in (2016)
Month to date precipitation 0.97 0.48  
Year to date precipitation 2.96 2.38  
Snow  
Snow 0.00 in 0.00 in 1.80 in (1999)
Month to date snowfall T 0.5  
Since 1 July snowfall 30.4 34.1  
Snow Depth 0.00 in    
Sea Level Pressure  
Sea Level Pressure 29.87 in    
Wind  
Wind Speed 14 mph (NNW)    
Max Wind Speed 29 mph    
Max Gust Speed 39 mph    
Visibility 8 miles    
Events Rain    
T = Trace of Precipitation, MM = Missing Value Source: NWS Daily Summary

Daily Weather History Graph

Daily Weather History Graph

Search for Another Location

Airport or City:

Trip Planner

Search our weather history database for the weather conditions in past years. The results will help you decide how hot, cold, wet, or windy it might be!

Date:

Astronomy

May. 10, 2014 Rise Set
Actual Time 5:33 AM MDT 8:32 PM MDT
Civil Twilight 4:57 AM MDT 9:09 PM MDT
Nautical Twilight 4:10 AM MDT 9:56 PM MDT
Astronomical Twilight 3:13 AM MDT 10:54 PM MDT
Moon 4:12 PM MDT (5/10) 3:29 AM MDT (5/10)
Length of Visible Light 16h 12m
Length of Day
14h 59m
Waxing Gibbous, 82% of the Moon is Illuminated
May 10
Waxing Gibbous
May 14
Full
May 21
Last Quarter
May 28
New
Jun 5
First Quarter

Hourly Weather History & Observations

Time (MDT) Temp. Windchill Dew Point Humidity Pressure Visibility Wind Dir Wind Speed Gust Speed Precip Events Conditions
12:53 AM 55.0 °F - 37.0 °F 51% 29.62 in 10.0 mi North 9.2 mph - N/A   Mostly Cloudy
1:53 AM 51.1 °F - 43.0 °F 74% 29.63 in 10.0 mi WNW 10.4 mph - N/A   Overcast
2:53 AM 50.0 °F - 43.0 °F 77% 29.63 in 10.0 mi WNW 10.4 mph - N/A   Overcast
3:53 AM 48.9 °F - 43.0 °F 80% 29.64 in 10.0 mi WNW 8.1 mph - N/A   Mostly Cloudy
4:53 AM 48.2 °F - 42.8 °F 82% 29.65 in 10.0 mi NNW 8.1 mph - N/A   Overcast
5:53 AM 48.9 °F - 37.0 °F 64% 29.65 in 10.0 mi NNE 13.8 mph - N/A   Overcast
6:53 AM 46.9 °F - 36.0 °F 66% 29.70 in 10.0 mi North 4.6 mph - N/A   Overcast
7:53 AM 45.0 °F 37.9 °F 35.1 °F 68% 29.74 in 10.0 mi NNE 16.1 mph 28.8 mph 0.00 in   Overcast
8:53 AM 43.0 °F 34.0 °F 34.0 °F 71% 29.76 in 10.0 mi NNE 21.9 mph 31.1 mph 0.00 in   Overcast
9:53 AM 41.0 °F 31.6 °F 37.0 °F 86% 29.77 in 10.0 mi NNE 20.7 mph 28.8 mph 0.01 in Rain Light Rain
10:53 AM 39.9 °F 30.0 °F 36.0 °F 86% 29.79 in 8.0 mi NNE 21.9 mph - 0.05 in Rain Light Rain
11:53 AM 39.0 °F 27.8 °F 36.0 °F 89% 29.82 in 4.0 mi North 26.5 mph 32.2 mph 0.07 in Rain Rain
12:06 PM 39.9 °F 30.2 °F 36.0 °F 86% 29.81 in 6.0 mi North 20.7 mph 31.1 mph 0.02 in Rain Light Rain
12:53 PM 41.0 °F 32.8 °F 36.0 °F 82% 29.86 in 5.0 mi North 16.1 mph 26.5 mph 0.10 in Rain Light Rain
1:53 PM 42.1 °F 32.6 °F 36.0 °F 79% 29.87 in 6.0 mi North 23.0 mph 29.9 mph 0.04 in Rain Light Rain
2:53 PM 41.0 °F 30.5 °F 37.0 °F 86% 29.90 in 4.0 mi North 26.5 mph 33.4 mph 0.03 in Rain Light Rain
3:35 PM 39.0 °F 28.3 °F 37.0 °F 93% 29.88 in 8.0 mi North 24.2 mph 29.9 mph 0.04 in Rain Light Rain
3:42 PM 39.0 °F 28.3 °F 36.0 °F 89% 29.89 in 6.0 mi North 24.2 mph 34.5 mph 0.04 in Rain Light Rain
3:53 PM 37.9 °F 26.8 °F 36.0 °F 93% 29.94 in 4.0 mi North 24.2 mph 31.1 mph 0.05 in Rain Rain
4:43 PM 37.9 °F 28.9 °F 36.0 °F 93% 29.92 in 5.0 mi North 16.1 mph - 0.05 in Rain Light Rain
4:53 PM 37.9 °F 29.6 °F 36.0 °F 93% 29.97 in 6.0 mi North 13.8 mph - 0.06 in Rain Light Rain
5:21 PM 39.0 °F 29.3 °F 36.0 °F 89% 29.93 in 7.0 mi NNW 19.6 mph - 0.02 in Rain Light Rain
5:32 PM 39.0 °F 29.0 °F 36.0 °F 89% 29.93 in 8.0 mi North 20.7 mph - 0.02 in Rain Light Rain
5:53 PM 39.0 °F 29.9 °F 36.0 °F 89% 29.99 in 6.0 mi North 17.3 mph - 0.04 in Rain Light Rain
6:25 PM 37.9 °F 29.2 °F 36.0 °F 93% 29.96 in 5.0 mi North 15.0 mph 21.9 mph 0.02 in Rain Light Rain
6:35 PM 37.9 °F 29.2 °F 37.0 °F 97% 29.96 in 6.0 mi North 15.0 mph - 0.03 in Rain Light Rain
6:53 PM 37.9 °F 30.5 °F 36.0 °F 93% 30.02 in 6.0 mi North 11.5 mph - 0.04 in Rain Light Rain
7:50 PM 39.2 °F 32.0 °F 37.4 °F 93% 29.99 in 9.0 mi NNW 11.5 mph - 0.04 in Rain Light Rain
7:53 PM 39.0 °F 32.3 °F 37.0 °F 93% 30.04 in 9.0 mi NNW 10.4 mph - 0.04 in Rain Light Rain
8:53 PM 39.2 °F 33.0 °F 37.4 °F 93% 30.02 in 10.0 mi NNW 9.2 mph - N/A Rain Light Rain
9:53 PM 39.9 °F 35.1 °F 37.9 °F 93% 30.11 in 10.0 mi NNW 6.9 mph - 0.00 in   Overcast
10:53 PM 39.0 °F 36.8 °F 37.0 °F 93% 30.11 in 10.0 mi West 3.5 mph - N/A   Overcast
11:53 PM 39.0 °F 34.8 °F 37.9 °F 96% 30.13 in 10.0 mi SW 5.8 mph - N/A   Overcast